This demonstration page uses our WeatherBlox Daily Observations layout. Learn more.

Left ArrowRight Arrow

Hourly Observations for February 13, 2022

Temp ( °F °C ) Dew Point ( °F °C ) Humidity (%) Winds ( mph kmh ) Pressure ( in mb ) Visibility ( mi km ) Precip ( " mm )
12:56 am 00:56 Clear 32 0 14 -10 47 47 NW 9 15 30.26 1025 10 16 0.00 0.00
1:56 am 01:56 Clear 31 -0.6 17 -8.3 56 56 NW 12 19 30.27 1025 10 16 0.00 0.00
2:56 am 02:56 Clear 29 -1.7 18 -7.8 63 63 NNW 15 24 30.31 1026 10 16 0.00 0.00
3:56 am 03:56 Clear 22 -5.6 12 -11.1 66 66 N 15 24 30.36 1028 10 16 0.00 0.00
4:56 am 04:56 Clear 19 -7.2 11 -11.7 71 71 N 9 15 30.38 1029 10 16 0.00 0.00
5:56 am 05:56 Clear 16 -8.9 10 -12.2 77 77 N 12 19 30.39 1029 10 16 0.00 0.00
6:56 am 06:56 Clear 13 -10.6 9 -12.8 84 84 N 7 11 30.42 1030 10 16 0.00 0.00
7:56 am 07:56 Sunny 12 -11.1 8 -13.3 84 84 Calm 30.43 1031 10 16 0.00 0.00
8:18 am 08:18 Partly Cloudy 12 -11 9 -13 85 85 Calm 30.55 1035 10 16 0.00 0.00
8:26 am 08:26 Mostly Cloudy 12 -11 10 -12 92 92 NNE 5 7 30.55 1035 10 16 0.00 0.00
8:56 am 08:56 Cloudy 15 -9.4 12 -11.1 88 88 NE 7 11 30.45 1031 10 16 0.00 0.00
9:56 am 09:56 Cloudy 17 -8.3 13 -10.6 84 84 VRB 3 6 30.44 1031 10 16 0.00 0.00
10:46 am 10:46 Partly Cloudy 19 -7 12 -11 73 73 VRB 3 6 30.53 1034 10 16 0.00 0.00
10:56 am 10:56 Sunny 20 -6.7 13 -10.6 74 74 VRB 5 7 30.44 1031 10 16 0.00 0.00
11:56 am 11:56 Sunny 25 -3.9 14 -10 63 63 VRB 7 11 30.41 1030 10 16 0.00 0.00
12:56 pm 12:56 Sunny 30 -1.1 15 -9.4 54 54 S 10 17 30.36 1028 10 16 0.00 0.00
1:56 pm 13:56 Sunny 36 2.2 14 -10 40 40 SSW 15 24 30.29 1026 10 16 0.00 0.00
2:56 pm 14:56 Sunny 39 3.9 15 -9.4 38 38 S 14 22 30.23 1024 10 16 0.00 0.00
3:56 pm 15:56 Sunny 42 5.6 15 -9.4 33 33 SSW 17 28 30.21 1023 10 16 0.00 0.00
4:56 pm 16:56 Sunny 43 6.1 16 -8.9 34 34 SSW 16 26 30.18 1022 10 16 0.00 0.00
5:56 pm 17:56 Sunny 40 4.4 16 -8.9 38 38 S 14 22 30.16 1021 10 16 0.00 0.00
6:56 pm 18:56 Clear 34 1.1 15 -9.4 46 46 SSW 13 20 30.16 1022 10 16 0.00 0.00
7:56 pm 19:56 Clear 35 1.7 15 -9.4 44 44 SSW 15 24 30.15 1021 10 16 0.00 0.00
8:56 pm 20:56 Clear 35 1.7 15 -9.4 44 44 SSW 16 26 30.14 1021 10 16 0.00 0.00
9:56 pm 21:56 Clear 35 1.7 16 -8.9 46 46 SW 13 20 30.13 1020 10 16 0.00 0.00
10:56 pm 22:56 Clear 33 0.6 15 -9.4 47 47 W 9 15 30.15 1021 10 16 0.00 0.00
11:56 pm 23:56 Clear 30 -1.1 17 -8.3 58 58 WNW 5 7 30.16 1021 10 16 0.00 0.00

Powered by AerisWeather